Regional Weather Roundup
Issued by NWS Raleigh/Durham, NC

Home | Current Version | Previous Version | Text Only | Print | Product List | Glossary On
Versions: 1 2 3 4 5 6 7 8 9 10 11 12 13 14 15 16 17 18 19 20 21 22 23 24 25 26 27 28 29 30 31 32 33 34 35 36 37 38 39 40 41 42 43 44 45 46 47 48 49 50
000
ASUS42 KRAH 040810
RWRRAH
NORTH CAROLINA WEATHER ROUNDUP
NATIONAL WEATHER SERVICE RALEIGH NC
400 AM EDT SAT JUL 04 2015

NOTE: "FAIR" INDICATES FEW OR NO CLOUDS BELOW 12,000 FEET WITH NO
SIGNIFICANT WEATHER AND/OR OBSTRUCTIONS TO VISIBILITY.

NCZ001-053-055-056-065-067-040900-
WESTERN NORTH CAROLINA

CITY           SKY/WX    TMP DP  RH WIND       PRES   REMARKS
ASHEVILLE      CLOUDY    67  62  84 CALM      30.03R
JEFFERSON      RAIN      65  64  96 CALM      30.02R
HICKORY        PTCLDY    68  65  90 W3        29.94S
RUTHERFORDTON  NOT AVBL
MOUNT AIRY     CLOUDY    71  69  93 CALM      29.95S FOG
$$

NCZ021-022-025-041-071-084-088-040900-
CENTRAL NORTH CAROLINA

CITY           SKY/WX    TMP DP  RH WIND       PRES   REMARKS
CHARLOTTE      MOCLDY    74  64  71 SW8       29.95S
GREENSBORO     PTCLDY    68  68 100 SW5       29.92R
WINSTON-SALEM  MOCLDY    69  67  93 CALM      29.94R
RALEIGH-DURHAM PTCLDY    71  69  93 SW6       29.91S
FAYETTEVILLE   CLEAR     73  69  87 SW7       29.93R
$$

NCZ011-015-027-028-043-044-047-080-103-040900-
NORTHEASTERN NORTH CAROLINA

CITY           SKY/WX    TMP DP  RH WIND       PRES   REMARKS
ROANOKE RAPIDS FAIR      72  70  94 SW9       29.88R
ROCKY MT-WILSO PTCLDY    73  70  90 SW8       29.90S
GREENVILLE     PTCLDY    73  72  94 W6        29.93R
WASHINGTON     MOCLDY    74  71  91 SW8       29.90F
ELIZABETH CITY NOT AVBL
MANTEO         MOCLDY    75  73  92 W14G20    29.89S
CAPE HATTERAS  LGT RAIN  76  70  82 W16G29    29.92F
$$

NCZ078-087-090-091-093-098-101-040900-
SOUTHEASTERN NORTH CAROLINA

CITY           SKY/WX    TMP DP  RH WIND       PRES   REMARKS
LUMBERTON      CLEAR     74  69  85 SW7       29.94S
GOLDSBORO      PTCLDY    74  71  91 SW6       29.90R FOG
KINSTON        CLEAR     76  70  81 SW6       29.92S
KENANSVILLE    CLEAR     73  69  88 SW3       29.95R
NEW BERN       CLOUDY    74  69  85 SW8       29.94S
CHERRY POINT   CLEAR     74  68  81 SW12      29.94F
BEAUFORT       CLEAR     80  73  79 SW12G28   29.93F
WILMINGTON     PTCLDY    77  72  84 SW9       29.95F
$$



USA.gov is the U.S. government's official web portal to all federal, state and local government web resources and services.